#timestamp,LO_Frequency,Hit,StdDev 
1671480015.1,286047001.1,N
1671480016.0,286047001.1,N
1671480035.8,286046998.6,N
1671480055.7,286046996.8,N
1671480075.5,286046996.5,N
1671480095.3,286046998.4,N
1671480115.2,286046999.2,N
1671480135.0,286046999.0,N
1671480135.9,286046999.0,N
1671480155.7,286046999.2,N
1671480175.6,286046997.0,N
1671480195.4,286046996.6,N
1671480215.3,286046998.6,N
1671480235.1,286047001.2,N
1671480255.8,286047000.6,N
1671480275.7,286047002.5,N
1671480295.5,286047000.1,N
1671480315.4,286047002.3,N
1671480335.2,286046999.9,N
1671480355.0,286047000.3,N
1671480355.9,286047000.3,N
1671480375.8,286047002.4,N
1671480395.6,286047000.5,N
1671480415.5,286046998.6,N
1671480435.3,286047001.2,N
1671480455.1,286047001.2,N
1671480475.9,286047000.3,N
1671480495.7,286046999.7,N
1671480515.5,286047000.3,N
1671480535.4,286046998.8,N
1671480555.2,286046998.6,N
1671480575.1,286046996.9,N
1671480576.0,286046996.9,N
1671480595.8,286046999.2,N
1671480615.6,286047001.1,N
1671480635.5,286046998.6,N
1671480655.3,286046998.6,N
1671480675.1,286046996.6,N
1671480695.9,286046996.7,N
1671480715.7,286046999.6,N
1671480735.6,286046998.3,N
1671480755.4,286046998.6,N
1671480775.2,286046999.2,N
1671480795.1,286046996.5,N
1671480796.0,286046996.5,N
1671480815.8,286047001.2,N
1671480835.7,286047001.1,N
1671480855.5,286046998.3,N
1671480875.3,286046998.1,N
1671480895.2,286047001.0,N
1671480915.9,286046998.9,N
1671480935.7,286047001.1,N
1671480955.6,286047000.2,N
1671480975.4,286047000.2,N
1671480995.3,286047002.8,N
1671481015.1,286047002.8,N
1671481016.0,286047002.8,N
1671481035.8,286046998.1,N
1671481055.7,286047000.6,N
1671481075.5,286047000.5,N
1671481095.3,286047000.7,N
1671481115.2,286046998.5,N
1671481135.0,286047001.0,N
1671481135.9,286047001.0,N
1671481155.8,286046998.2,N
1671481175.6,286046997.5,N
1671481195.4,286046994.9,N
1671481215.3,286046994.9,N
1671481235.1,286046993.6,Y
1671481255.9,286046995.7,P
1671481275.7,286046995.2,N
1671481295.5,286046997.1,N
1671481315.4,286046996.6,N
1671481335.2,286046998.2,N
1671481355.0,286047001.1,N
1671481355.9,286047001.1,N
1671481375.8,286047001.1,N
1671481395.6,286047000.7,N
1671481415.5,286047000.7,N
1671481435.3,286047002.5,N
1671481455.1,286047002.5,N
1671481475.9,286047001.9,N
1671481495.7,286047001.8,N
1671481515.5,286047001.6,N
1671481535.4,286047002.6,N
1671481555.2,286047002.2,N
1671481575.1,286047001.7,N
1671481576.0,286047001.7,N
1671481595.8,286047002.5,N
1671481615.6,286047001.8,N
1671481635.5,286047003.2,N
1671481655.3,286047006.0,N
1671481675.2,286047004.4,N
1671481695.9,286047002.8,N
1671481715.7,286047002.1,N
1671481735.6,286046999.8,N
1671481755.4,286047001.5,N
1671481775.2,286047001.8,N
1671481795.1,286046999.8,N
1671481796.0,286046999.8,N
1671481815.8,286047001.8,N
1671481835.7,286047001.3,N
1671481855.5,286047003.6,N
1671481875.3,286047001.5,N
1671481895.2,286047001.7,N
1671481915.0,286047001.8,N
1671481915.9,286047001.8,N
1671481935.7,286047002.4,N
1671481955.6,286046999.9,N
1671481975.4,286047002.3,N
1671481995.3,286047002.4,N
1671482015.1,286047001.9,N
1671482016.0,286047001.9,N
1671482035.8,286047002.3,N
1671482055.7,286047000.5,N
1671482075.5,286046999.8,N
1671482095.4,286047000.4,N
1671482115.2,286047002.4,N
1671482135.0,286046999.7,N
1671482135.9,286046999.7,N
1671482155.8,286047002.3,N
1671482175.6,286047002.8,N
1671482195.4,286047002.4,N
1671482215.3,286047000.1,N
1671482235.1,286047002.0,N
1671482255.9,286047003.5,Y
1671482275.7,286047002.1,P
1671482295.5,286047002.7,P
1671482315.4,286047000.4,N
1671482335.2,286046999.8,N
1671482355.1,286047000.8,N
1671482356.0,286047000.8,N
1671482375.8,286047000.9,N
1671482395.6,286047000.5,N
1671482415.5,286046998.1,N
1671482435.3,286046999.0,N
1671482455.1,286046998.5,N
1671482475.9,286047000.8,N
1671482495.7,286046998.1,N
1671482515.6,286046999.8,N
1671482535.4,286046999.9,N
1671482555.2,286047000.8,N
1671482575.1,286046999.2,N
1671482576.0,286046999.2,N
1671482595.8,286046998.4,N
1671482615.7,286046997.0,N
1671482635.5,286046997.4,N
1671482655.7,286046999.1,N
1671482675.5,286047001.1,N
1671482695.4,286046999.7,N
1671482715.2,286047000.2,N
1671482735.0,286047000.0,N
1671482735.9,286047000.0,N
1671482755.8,286046998.3,N
1671482775.6,286046998.3,N
1671482795.5,286046996.5,N
1671482815.3,286047001.1,N
1671482835.1,286046999.3,N
1671482855.9,286046998.9,N
1671482875.7,286047000.9,N
1671482895.6,286047000.4,N
1671482915.4,286046998.7,N
1671482935.2,286046998.8,N
1671482955.1,286046998.1,N
1671482956.0,286046998.1,N
1671482975.8,286047001.0,N
1671482995.7,286046998.1,N
1671483015.5,286046999.6,N
1671483035.3,286046999.6,N
1671483055.2,286046998.6,N
1671483075.9,286047000.7,N
1671483095.7,286047000.8,N
1671483115.6,286046999.8,N
1671483135.4,286047000.3,N
1671483155.3,286047000.3,N
1671483175.1,286047001.1,N
1671483176.0,286047001.1,N
1671483195.8,286047002.6,N
1671483215.7,286046998.8,N
1671483235.5,286046998.5,N
1671483255.3,286047001.0,N
1671483275.2,286046999.9,N
1671483295.0,286047002.4,N
1671483295.9,286047002.4,N
1671483315.8,286046999.7,N
1671483335.6,286047002.3,N
1671483355.4,286047002.3,N
1671483375.3,286047002.3,N
1671483395.1,286047001.8,N
1671483415.8,286047001.9,N
1671483435.7,286047003.7,N
1671483455.5,286047001.9,N
1671483475.4,286047003.9,N
1671483495.2,286047001.5,N
1671483515.0,286047000.2,N
1671483515.9,286047000.2,N
1671483535.8,286047002.7,N
1671483555.6,286047002.4,N
1671483575.4,286047002.8,N
1671483595.3,286047002.8,N
